Location: Newark
(53.7833°N, 20.5000°E)
Time: 01:17:04
(UTC+00:00)

N. Korean satellite - Visible Passes

Search period start: 20 October 2019 00:00
Search period end: 30 October 2019 00:00
Orbit: 455 x 508 km, 97.2° (Epoch: 19 October)

Date Brightness Start Highest point End Pass type
(mag) Time Alt. Az. Time Alt. Az. Time Alt. Az.
20 Oct 10.6 17:04:55 10° W 17:05:15 10° W 17:05:36 10° W visible
21 Oct 8.0 04:21:02 10° NNE 04:24:30 43° E 04:27:59 10° S visible
21 Oct 9.8 16:37:13 10° SW 16:39:40 18° W 16:42:08 10° NW visible
22 Oct 9.3 03:56:02 10° NE 03:59:03 24° E 04:02:06 10° SSE visible
22 Oct 8.7 16:11:02 10° SSW 16:14:09 32° W 16:17:21 10° NNW visible
23 Oct 10.1 03:31:30 10° NE 03:33:32 14° E 03:35:34 10° ESE visible
24 Oct 7.1 04:38:23 10° NNE 04:42:01 68° ESE 04:45:40 10° S visible
24 Oct 10.2 16:55:48 10° WSW 16:57:18 12° W 16:58:48 10° WNW visible
25 Oct 8.4 04:13:13 10° NNE 04:16:38 36° E 04:20:03 10° SSE visible
25 Oct 9.5 16:28:59 10° SW 16:31:43 22° W 16:34:30 10° NW visible
26 Oct 9.6 03:48:18 10° NE 03:51:09 21° E 03:54:00 10° SE visible
26 Oct 8.2 16:02:58 10° SSW 16:06:14 39° W 16:09:35 10° NNW visible
27 Oct 10.3 03:24:02 10° ENE 03:25:35 12° E 03:27:09 10° ESE visible
28 Oct 7.4 04:30:31 10° NNE 04:34:08 56° E 04:37:46 10° S visible
28 Oct 10.0 16:47:15 10° SW 16:49:18 15° W 16:51:23 10° NW visible
29 Oct 8.8 04:05:24 10° NNE 04:08:42 31° E 04:12:02 10° SSE visible
29 Oct 9.1 16:20:47 10° SSW 16:23:45 26° W 16:26:47 10° NW visible
